Multibeam Report for NBP0602


Ship Name: Nathaniel B. Palmer
Chief Scientist: Stock, Joann
California Institute of Technology
Source Organization: Marine Geoscience Data System (MGDS)
Start Date: 2006-02-02
End Date: 2006-02-21


View ISO Metadata

Visit the full NCEI Bathymetry Viewer


Multibeam Bathymetry

Cruise Details

Project: Late Cretaceous and Cenozoic Reconstructions
Instrument: Simrad EM120

Data Quality

Number of Files: 937
Number of Records: 337384
BATHYMETRY DATA Quantity Percentage
Number of Beams 64440344 100%
Number of Good Beams 44044531 68.35%
Number of Zero Beams 18163468 28.19%
Number of Flagged Beams 2232345 3.46%

Navigation Totals

Total Time: 895.934 hours
Total Track Length: 17524.5812 km
Average Speed: 19.56 km/hr (10.5616 knots)

Cruise Bounds

Northern Extent: -51.66561
Southern Extent: -77.19973
Western Extent: 166.37503
Eastern Extent: -75.40666

Limits

Minimum Sonar Depth 0 Maximum Sonar Depth 31457.2793
Minimum Altitude 0 Maximum Altitude 7645.6001
Minimum Depth 91.27 Maximum Depth 10747.5195

File Information

Full Resolution Bathymetry as collected (raw): 467

Files File Size Description
0001_20060202_164211_raw.mb56.gz 12.69MB Simrad multibeam vendor format
0002_20060202_174211_raw.mb56.gz 14.11MB Simrad multibeam vendor format
0003_20060202_184212_raw.mb56.gz 17.23MB Simrad multibeam vendor format
0004_20060202_194212_raw.mb56.gz 11.86MB Simrad multibeam vendor format
0005_20060202_204212_raw.mb56.gz 12.32MB Simrad multibeam vendor format
0006_20060202_214212_raw.mb56.gz 12.90MB Simrad multibeam vendor format
0007_20060202_224212_raw.mb56.gz 13.54MB Simrad multibeam vendor format
0008_20060202_234155_raw.mb56.gz 15.49MB Simrad multibeam vendor format
0009_20060203_004155_raw.mb56.gz 16.10MB Simrad multibeam vendor format
0010_20060203_014155_raw.mb56.gz 16.03MB Simrad multibeam vendor format
0011_20060203_024155_raw.mb56.gz 15.93MB Simrad multibeam vendor format
0012_20060203_034156_raw.mb56.gz 15.98MB Simrad multibeam vendor format
0013_20060203_044156_raw.mb56.gz 15.88MB Simrad multibeam vendor format
0014_20060203_054154_raw.mb56.gz 15.96MB Simrad multibeam vendor format
0015_20060203_064154_raw.mb56.gz 16.38MB Simrad multibeam vendor format
0016_20060203_074154_raw.mb56.gz 17.04MB Simrad multibeam vendor format
0017_20060203_084154_raw.mb56.gz 18.14MB Simrad multibeam vendor format
0018_20060203_094154_raw.mb56.gz 19.34MB Simrad multibeam vendor format
0019_20060203_104154_raw.mb56.gz 19.51MB Simrad multibeam vendor format
0020_20060203_114155_raw.mb56.gz 19.69MB Simrad multibeam vendor format
0021_20060203_124155_raw.mb56.gz 17.84MB Simrad multibeam vendor format
0022_20060203_134155_raw.mb56.gz 17.65MB Simrad multibeam vendor format
0023_20060203_144155_raw.mb56.gz 18.44MB Simrad multibeam vendor format
0024_20060203_154155_raw.mb56.gz 19.76MB Simrad multibeam vendor format
0025_20060203_164155_raw.mb56.gz 20.62MB Simrad multibeam vendor format
0026_20060203_174155_raw.mb56.gz 20.88MB Simrad multibeam vendor format
0027_20060203_184156_raw.mb56.gz 21.57MB Simrad multibeam vendor format
0028_20060203_194156_raw.mb56.gz 17.93MB Simrad multibeam vendor format
0029_20060203_204156_raw.mb56.gz 15.65MB Simrad multibeam vendor format
0030_20060203_214156_raw.mb56.gz 13.40MB Simrad multibeam vendor format
0031_20060203_224156_raw.mb56.gz 8.68MB Simrad multibeam vendor format
0032_20060203_234156_raw.mb56.gz 2.12MB Simrad multibeam vendor format
0033_20060204_000137_raw.mb56.gz 6.73MB Simrad multibeam vendor format
0034_20060204_010137_raw.mb56.gz 6.86MB Simrad multibeam vendor format
0035_20060204_020137_raw.mb56.gz 6.97MB Simrad multibeam vendor format
0036_20060204_030137_raw.mb56.gz 6.99MB Simrad multibeam vendor format
0037_20060204_040138_raw.mb56.gz 7.40MB Simrad multibeam vendor format
0038_20060204_050138_raw.mb56.gz 8.24MB Simrad multibeam vendor format
0039_20060204_060138_raw.mb56.gz 9.46MB Simrad multibeam vendor format
0040_20060204_070138_raw.mb56.gz 9.69MB Simrad multibeam vendor format
0041_20060204_080138_raw.mb56.gz 11.86MB Simrad multibeam vendor format
0042_20060204_090138_raw.mb56.gz 9.46MB Simrad multibeam vendor format
0043_20060204_094722_raw.mb56.gz 12.46MB Simrad multibeam vendor format
0044_20060204_104722_raw.mb56.gz 10.50MB Simrad multibeam vendor format
0045_20060204_114722_raw.mb56.gz 3.04MB Simrad multibeam vendor format
0046_20060204_120641_raw.mb56.gz 10.08MB Simrad multibeam vendor format
0047_20060204_130641_raw.mb56.gz 10.46MB Simrad multibeam vendor format
0048_20060204_140641_raw.mb56.gz 9.68MB Simrad multibeam vendor format
0049_20060204_150641_raw.mb56.gz 7.66MB Simrad multibeam vendor format
0050_20060204_160641_raw.mb56.gz 6.97MB Simrad multibeam vendor format
0051_20060204_170641_raw.mb56.gz 6.86MB Simrad multibeam vendor format
0052_20060204_180641_raw.mb56.gz 6.73MB Simrad multibeam vendor format
0053_20060204_190642_raw.mb56.gz 6.52MB Simrad multibeam vendor format
0054_20060204_200642_raw.mb56.gz 6.51MB Simrad multibeam vendor format
0055_20060204_210642_raw.mb56.gz 6.49MB Simrad multibeam vendor format
0056_20060204_220642_raw.mb56.gz 6.54MB Simrad multibeam vendor format
0057_20060204_230642_raw.mb56.gz 6.49MB Simrad multibeam vendor format
0059_20060205_000657_raw.mb56.gz 5.85MB Simrad multibeam vendor format
0060_20060205_010657_raw.mb56.gz 6.23MB Simrad multibeam vendor format
0061_20060205_020657_raw.mb56.gz 5.93MB Simrad multibeam vendor format
0062_20060205_030657_raw.mb56.gz 6.34MB Simrad multibeam vendor format
0063_20060205_040657_raw.mb56.gz 6.28MB Simrad multibeam vendor format
0064_20060205_050657_raw.mb56.gz 6.52MB Simrad multibeam vendor format
0065_20060205_060658_raw.mb56.gz 6.51MB Simrad multibeam vendor format
0066_20060205_070658_raw.mb56.gz 6.30MB Simrad multibeam vendor format
0067_20060205_080658_raw.mb56.gz 6.37MB Simrad multibeam vendor format
0068_20060205_090658_raw.mb56.gz 6.05MB Simrad multibeam vendor format
0069_20060205_100658_raw.mb56.gz 6.08MB Simrad multibeam vendor format
0070_20060205_110658_raw.mb56.gz 6.02MB Simrad multibeam vendor format
0071_20060205_120657_raw.mb56.gz 6.12MB Simrad multibeam vendor format
0072_20060205_130657_raw.mb56.gz 6.17MB Simrad multibeam vendor format
0073_20060205_140657_raw.mb56.gz 5.99MB Simrad multibeam vendor format
0074_20060205_150657_raw.mb56.gz 6.03MB Simrad multibeam vendor format
0075_20060205_160657_raw.mb56.gz 6.16MB Simrad multibeam vendor format
0076_20060205_170657_raw.mb56.gz 5.72MB Simrad multibeam vendor format
0077_20060205_180657_raw.mb56.gz 5.76MB Simrad multibeam vendor format
0078_20060205_190657_raw.mb56.gz 5.56MB Simrad multibeam vendor format
0079_20060205_200658_raw.mb56.gz 5.82MB Simrad multibeam vendor format
0080_20060205_210658_raw.mb56.gz 6.01MB Simrad multibeam vendor format
0081_20060205_220658_raw.mb56.gz 3.08MB Simrad multibeam vendor format
0082_20060205_223930_raw.mb56.gz 5.71MB Simrad multibeam vendor format
0083_20060205_233930_raw.mb56.gz 5.79MB Simrad multibeam vendor format
0084_20060206_003930_raw.mb56.gz 5.96MB Simrad multibeam vendor format
0085_20060206_013930_raw.mb56.gz 5.79MB Simrad multibeam vendor format
0086_20060206_023930_raw.mb56.gz 5.62MB Simrad multibeam vendor format
0087_20060206_033930_raw.mb56.gz 5.29MB Simrad multibeam vendor format
0088_20060206_043930_raw.mb56.gz 5.14MB Simrad multibeam vendor format
0089_20060206_053931_raw.mb56.gz 5.30MB Simrad multibeam vendor format
0090_20060206_063931_raw.mb56.gz 5.31MB Simrad multibeam vendor format
0091_20060206_073931_raw.mb56.gz 5.25MB Simrad multibeam vendor format
0092_20060206_083931_raw.mb56.gz 5.35MB Simrad multibeam vendor format
0093_20060206_093931_raw.mb56.gz 5.26MB Simrad multibeam vendor format
0094_20060206_103931_raw.mb56.gz 5.28MB Simrad multibeam vendor format
0095_20060206_113931_raw.mb56.gz 5.19MB Simrad multibeam vendor format
0096_20060206_123932_raw.mb56.gz 5.33MB Simrad multibeam vendor format
0097_20060206_133932_raw.mb56.gz 5.30MB Simrad multibeam vendor format
0098_20060206_143932_raw.mb56.gz 5.27MB Simrad multibeam vendor format
0099_20060206_153932_raw.mb56.gz 5.23MB Simrad multibeam vendor format
0100_20060206_163932_raw.mb56.gz 5.20MB Simrad multibeam vendor format
0101_20060206_173932_raw.mb56.gz 5.23MB Simrad multibeam vendor format
0102_20060206_183932_raw.mb56.gz 5.23MB Simrad multibeam vendor format
0103_20060206_193932_raw.mb56.gz 5.16MB Simrad multibeam vendor format
0104_20060206_203933_raw.mb56.gz 5.16MB Simrad multibeam vendor format
0105_20060206_213933_raw.mb56.gz 5.19MB Simrad multibeam vendor format
0106_20060206_223933_raw.mb56.gz 1.67MB Simrad multibeam vendor format
0107_20060206_225906_raw.mb56.gz 5.19MB Simrad multibeam vendor format
0108_20060206_235906_raw.mb56.gz 5.21MB Simrad multibeam vendor format
0109_20060207_005906_raw.mb56.gz 5.25MB Simrad multibeam vendor format
0110_20060207_015906_raw.mb56.gz 5.22MB Simrad multibeam vendor format
0111_20060207_025907_raw.mb56.gz 5.22MB Simrad multibeam vendor format
0112_20060207_035907_raw.mb56.gz 5.28MB Simrad multibeam vendor format
0113_20060207_045907_raw.mb56.gz 5.40MB Simrad multibeam vendor format
0114_20060207_055907_raw.mb56.gz 5.41MB Simrad multibeam vendor format
0115_20060207_065907_raw.mb56.gz 5.33MB Simrad multibeam vendor format
0116_20060207_075907_raw.mb56.gz 5.41MB Simrad multibeam vendor format
0117_20060207_085907_raw.mb56.gz 5.45MB Simrad multibeam vendor format
0118_20060207_095908_raw.mb56.gz 5.43MB Simrad multibeam vendor format
0119_20060207_105908_raw.mb56.gz 5.39MB Simrad multibeam vendor format
0120_20060207_115908_raw.mb56.gz 5.49MB Simrad multibeam vendor format
0121_20060207_125908_raw.mb56.gz 5.61MB Simrad multibeam vendor format
0122_20060207_135908_raw.mb56.gz 5.68MB Simrad multibeam vendor format
0123_20060207_145909_raw.mb56.gz 5.61MB Simrad multibeam vendor format
0124_20060207_155909_raw.mb56.gz 5.86MB Simrad multibeam vendor format
0125_20060207_165909_raw.mb56.gz 5.83MB Simrad multibeam vendor format
0126_20060207_175909_raw.mb56.gz 5.84MB Simrad multibeam vendor format
0127_20060207_185907_raw.mb56.gz 5.66MB Simrad multibeam vendor format
0128_20060207_195907_raw.mb56.gz 5.80MB Simrad multibeam vendor format
0129_20060207_205907_raw.mb56.gz 5.90MB Simrad multibeam vendor format
0130_20060207_215908_raw.mb56.gz 5.83MB Simrad multibeam vendor format
0131_20060207_225908_raw.mb56.gz 1.32MB Simrad multibeam vendor format
0132_20060207_231205_raw.mb56.gz 5.84MB Simrad multibeam vendor format
0133_20060208_001205_raw.mb56.gz 5.73MB Simrad multibeam vendor format
0134_20060208_011205_raw.mb56.gz 5.89MB Simrad multibeam vendor format
0135_20060208_021205_raw.mb56.gz 5.92MB Simrad multibeam vendor format
0136_20060208_031205_raw.mb56.gz 6.20MB Simrad multibeam vendor format
0137_20060208_041205_raw.mb56.gz 6.25MB Simrad multibeam vendor format
0138_20060208_051206_raw.mb56.gz 6.07MB Simrad multibeam vendor format
0139_20060208_061206_raw.mb56.gz 6.24MB Simrad multibeam vendor format
0140_20060208_071206_raw.mb56.gz 6.14MB Simrad multibeam vendor format
0141_20060208_081206_raw.mb56.gz 6.30MB Simrad multibeam vendor format
0142_20060208_091206_raw.mb56.gz 6.17MB Simrad multibeam vendor format
0143_20060208_101207_raw.mb56.gz 6.10MB Simrad multibeam vendor format
0144_20060208_111207_raw.mb56.gz 6.21MB Simrad multibeam vendor format
0145_20060208_121207_raw.mb56.gz 6.02MB Simrad multibeam vendor format
0146_20060208_131207_raw.mb56.gz 5.95MB Simrad multibeam vendor format
0147_20060208_141207_raw.mb56.gz 5.96MB Simrad multibeam vendor format
0148_20060208_151207_raw.mb56.gz 6.02MB Simrad multibeam vendor format
0149_20060208_161208_raw.mb56.gz 5.86MB Simrad multibeam vendor format
0150_20060208_171208_raw.mb56.gz 5.83MB Simrad multibeam vendor format
0151_20060208_181208_raw.mb56.gz 6.14MB Simrad multibeam vendor format
0152_20060208_191208_raw.mb56.gz 6.02MB Simrad multibeam vendor format
0153_20060208_201208_raw.mb56.gz 5.92MB Simrad multibeam vendor format
0154_20060208_211208_raw.mb56.gz 2.43MB Simrad multibeam vendor format
0155_20060208_213601_raw.mb56.gz 6.00MB Simrad multibeam vendor format
0156_20060208_223601_raw.mb56.gz 5.97MB Simrad multibeam vendor format
0157_20060208_233601_raw.mb56.gz 5.89MB Simrad multibeam vendor format
0158_20060209_003601_raw.mb56.gz 6.02MB Simrad multibeam vendor format
0159_20060209_013601_raw.mb56.gz 5.96MB Simrad multibeam vendor format
0160_20060209_023601_raw.mb56.gz 5.93MB Simrad multibeam vendor format
0161_20060209_033601_raw.mb56.gz 5.97MB Simrad multibeam vendor format
0162_20060209_043602_raw.mb56.gz 5.98MB Simrad multibeam vendor format
0163_20060209_053602_raw.mb56.gz 6.11MB Simrad multibeam vendor format
0164_20060209_063602_raw.mb56.gz 5.99MB Simrad multibeam vendor format
0165_20060209_073602_raw.mb56.gz 6.00MB Simrad multibeam vendor format
0166_20060209_083602_raw.mb56.gz 6.09MB Simrad multibeam vendor format
0167_20060209_093602_raw.mb56.gz 6.04MB Simrad multibeam vendor format
0168_20060209_103603_raw.mb56.gz 5.93MB Simrad multibeam vendor format
0169_20060209_113603_raw.mb56.gz 5.90MB Simrad multibeam vendor format
0170_20060209_123603_raw.mb56.gz 6.07MB Simrad multibeam vendor format
0171_20060209_133603_raw.mb56.gz 6.09MB Simrad multibeam vendor format
0172_20060209_143603_raw.mb56.gz 5.99MB Simrad multibeam vendor format
0173_20060209_153603_raw.mb56.gz 5.94MB Simrad multibeam vendor format
0174_20060209_163604_raw.mb56.gz 6.02MB Simrad multibeam vendor format
0175_20060209_173604_raw.mb56.gz 6.03MB Simrad multibeam vendor format
0176_20060209_183604_raw.mb56.gz 5.63MB Simrad multibeam vendor format
0177_20060209_193604_raw.mb56.gz 5.82MB Simrad multibeam vendor format
0178_20060209_203604_raw.mb56.gz 5.74MB Simrad multibeam vendor format
0179_20060209_213604_raw.mb56.gz 0.65MB Simrad multibeam vendor format
0180_20060209_214257_raw.mb56.gz 5.64MB Simrad multibeam vendor format
0181_20060209_224257_raw.mb56.gz 5.52MB Simrad multibeam vendor format
0182_20060209_234258_raw.mb56.gz 5.65MB Simrad multibeam vendor format
0183_20060210_004258_raw.mb56.gz 5.55MB Simrad multibeam vendor format
0184_20060210_014258_raw.mb56.gz 5.53MB Simrad multibeam vendor format
0185_20060210_024256_raw.mb56.gz 5.66MB Simrad multibeam vendor format
0186_20060210_034256_raw.mb56.gz 5.82MB Simrad multibeam vendor format
0187_20060210_044256_raw.mb56.gz 5.72MB Simrad multibeam vendor format
0188_20060210_054256_raw.mb56.gz 5.74MB Simrad multibeam vendor format
0189_20060210_064257_raw.mb56.gz 6.08MB Simrad multibeam vendor format
0190_20060210_074257_raw.mb56.gz 5.98MB Simrad multibeam vendor format
0191_20060210_084257_raw.mb56.gz 6.04MB Simrad multibeam vendor format
0192_20060210_094259_raw.mb56.gz 5.97MB Simrad multibeam vendor format
0193_20060210_104300_raw.mb56.gz 6.02MB Simrad multibeam vendor format
0194_20060210_114300_raw.mb56.gz 6.27MB Simrad multibeam vendor format
0195_20060210_124300_raw.mb56.gz 6.13MB Simrad multibeam vendor format
0196_20060210_134300_raw.mb56.gz 5.98MB Simrad multibeam vendor format
0197_20060210_144300_raw.mb56.gz 6.08MB Simrad multibeam vendor format
0198_20060210_154301_raw.mb56.gz 6.02MB Simrad multibeam vendor format
0199_20060210_164301_raw.mb56.gz 6.02MB Simrad multibeam vendor format
0200_20060210_174301_raw.mb56.gz 6.23MB Simrad multibeam vendor format
0201_20060210_184301_raw.mb56.gz 6.24MB Simrad multibeam vendor format
0202_20060210_194301_raw.mb56.gz 5.48MB Simrad multibeam vendor format
0203_20060210_203917_raw.mb56.gz 6.06MB Simrad multibeam vendor format
0204_20060210_213917_raw.mb56.gz 5.87MB Simrad multibeam vendor format
0205_20060210_223917_raw.mb56.gz 5.88MB Simrad multibeam vendor format
0206_20060210_233917_raw.mb56.gz 5.72MB Simrad multibeam vendor format
0207_20060211_003917_raw.mb56.gz 5.96MB Simrad multibeam vendor format
0208_20060211_013917_raw.mb56.gz 5.92MB Simrad multibeam vendor format
0209_20060211_023917_raw.mb56.gz 5.98MB Simrad multibeam vendor format
0210_20060211_033917_raw.mb56.gz 6.08MB Simrad multibeam vendor format
0211_20060211_043918_raw.mb56.gz 6.02MB Simrad multibeam vendor format
0212_20060211_053918_raw.mb56.gz 6.07MB Simrad multibeam vendor format
0213_20060211_063918_raw.mb56.gz 6.28MB Simrad multibeam vendor format
0214_20060211_073918_raw.mb56.gz 6.33MB Simrad multibeam vendor format
0215_20060211_083918_raw.mb56.gz 6.26MB Simrad multibeam vendor format
0216_20060211_093918_raw.mb56.gz 6.39MB Simrad multibeam vendor format
0217_20060211_103919_raw.mb56.gz 6.29MB Simrad multibeam vendor format
0218_20060211_113919_raw.mb56.gz 6.19MB Simrad multibeam vendor format
0219_20060211_123919_raw.mb56.gz 6.08MB Simrad multibeam vendor format
0220_20060211_133919_raw.mb56.gz 6.02MB Simrad multibeam vendor format
0221_20060211_143919_raw.mb56.gz 6.11MB Simrad multibeam vendor format
0222_20060211_153920_raw.mb56.gz 6.14MB Simrad multibeam vendor format
0223_20060211_163920_raw.mb56.gz 6.16MB Simrad multibeam vendor format
0224_20060211_173920_raw.mb56.gz 6.07MB Simrad multibeam vendor format
0225_20060211_183920_raw.mb56.gz 6.13MB Simrad multibeam vendor format
0226_20060211_193920_raw.mb56.gz 6.09MB Simrad multibeam vendor format
0227_20060211_203920_raw.mb56.gz 1.16MB Simrad multibeam vendor format
0228_20060211_205052_raw.mb56.gz 6.22MB Simrad multibeam vendor format
0229_20060211_215052_raw.mb56.gz 6.15MB Simrad multibeam vendor format
0230_20060211_225052_raw.mb56.gz 6.28MB Simrad multibeam vendor format
0231_20060211_235052_raw.mb56.gz 6.09MB Simrad multibeam vendor format
0232_20060212_005053_raw.mb56.gz 5.70MB Simrad multibeam vendor format
0233_20060212_015054_raw.mb56.gz 5.80MB Simrad multibeam vendor format
0234_20060212_025054_raw.mb56.gz 5.84MB Simrad multibeam vendor format
0235_20060212_035054_raw.mb56.gz 4.58MB Simrad multibeam vendor format
0236_20060212_043802_raw.mb56.gz 6.10MB Simrad multibeam vendor format
0237_20060212_053802_raw.mb56.gz 6.07MB Simrad multibeam vendor format
0238_20060212_063802_raw.mb56.gz 6.06MB Simrad multibeam vendor format
0239_20060212_073802_raw.mb56.gz 5.90MB Simrad multibeam vendor format
0240_20060212_083803_raw.mb56.gz 5.73MB Simrad multibeam vendor format
0241_20060212_093801_raw.mb56.gz 5.87MB Simrad multibeam vendor format
0242_20060212_103801_raw.mb56.gz 5.82MB Simrad multibeam vendor format
0243_20060212_113801_raw.mb56.gz 5.92MB Simrad multibeam vendor format
0244_20060212_123802_raw.mb56.gz 5.85MB Simrad multibeam vendor format
0245_20060212_133802_raw.mb56.gz 5.82MB Simrad multibeam vendor format
0246_20060212_143802_raw.mb56.gz 5.83MB Simrad multibeam vendor format
0247_20060212_153802_raw.mb56.gz 5.90MB Simrad multibeam vendor format
0248_20060212_163802_raw.mb56.gz 5.80MB Simrad multibeam vendor format
0249_20060212_173802_raw.mb56.gz 5.92MB Simrad multibeam vendor format
0250_20060212_183802_raw.mb56.gz 5.49MB Simrad multibeam vendor format
0251_20060212_193803_raw.mb56.gz 1.31MB Simrad multibeam vendor format
0252_20060212_195219_raw.mb56.gz 5.43MB Simrad multibeam vendor format
0253_20060212_205220_raw.mb56.gz 5.35MB Simrad multibeam vendor format
0254_20060212_215220_raw.mb56.gz 5.48MB Simrad multibeam vendor format
0255_20060212_225220_raw.mb56.gz 5.42MB Simrad multibeam vendor format
0256_20060212_235220_raw.mb56.gz 5.43MB Simrad multibeam vendor format
0257_20060213_005220_raw.mb56.gz 5.53MB Simrad multibeam vendor format
0258_20060213_015220_raw.mb56.gz 5.62MB Simrad multibeam vendor format
0259_20060213_025220_raw.mb56.gz 5.53MB Simrad multibeam vendor format
0260_20060213_035221_raw.mb56.gz 5.70MB Simrad multibeam vendor format
0261_20060213_045221_raw.mb56.gz 2.14MB Simrad multibeam vendor format
0263_20060213_051555_raw.mb56.gz 5.54MB Simrad multibeam vendor format
0264_20060213_061555_raw.mb56.gz 5.51MB Simrad multibeam vendor format
0265_20060213_071556_raw.mb56.gz 5.52MB Simrad multibeam vendor format
0266_20060213_081556_raw.mb56.gz 5.63MB Simrad multibeam vendor format
0267_20060213_091556_raw.mb56.gz 5.54MB Simrad multibeam vendor format
0268_20060213_101556_raw.mb56.gz 5.51MB Simrad multibeam vendor format
0269_20060213_111557_raw.mb56.gz 5.55MB Simrad multibeam vendor format
0270_20060213_121557_raw.mb56.gz 5.54MB Simrad multibeam vendor format
0271_20060213_131557_raw.mb56.gz 5.57MB Simrad multibeam vendor format
0272_20060213_141557_raw.mb56.gz 5.76MB Simrad multibeam vendor format
0273_20060213_151557_raw.mb56.gz 5.64MB Simrad multibeam vendor format
0274_20060213_161557_raw.mb56.gz 5.69MB Simrad multibeam vendor format
0275_20060213_171557_raw.mb56.gz 5.57MB Simrad multibeam vendor format
0276_20060213_181557_raw.mb56.gz 5.65MB Simrad multibeam vendor format
0277_20060213_191558_raw.mb56.gz 3.38MB Simrad multibeam vendor format
0278_20060213_195149_raw.mb56.gz 5.70MB Simrad multibeam vendor format
0279_20060213_205149_raw.mb56.gz 5.66MB Simrad multibeam vendor format
0280_20060213_215149_raw.mb56.gz 5.75MB Simrad multibeam vendor format
0281_20060213_225149_raw.mb56.gz 5.56MB Simrad multibeam vendor format
0282_20060213_235150_raw.mb56.gz 5.42MB Simrad multibeam vendor format
0283_20060214_005150_raw.mb56.gz 5.28MB Simrad multibeam vendor format
0284_20060214_015150_raw.mb56.gz 5.31MB Simrad multibeam vendor format
0285_20060214_025150_raw.mb56.gz 5.43MB Simrad multibeam vendor format
0286_20060214_035150_raw.mb56.gz 5.46MB Simrad multibeam vendor format
0287_20060214_045150_raw.mb56.gz 5.79MB Simrad multibeam vendor format
0288_20060214_055150_raw.mb56.gz 5.54MB Simrad multibeam vendor format
0289_20060214_065151_raw.mb56.gz 5.40MB Simrad multibeam vendor format
0290_20060214_075151_raw.mb56.gz 5.50MB Simrad multibeam vendor format
0291_20060214_085151_raw.mb56.gz 5.59MB Simrad multibeam vendor format
0292_20060214_095151_raw.mb56.gz 5.50MB Simrad multibeam vendor format
0293_20060214_105151_raw.mb56.gz 5.09MB Simrad multibeam vendor format
0294_20060214_115151_raw.mb56.gz 5.39MB Simrad multibeam vendor format
0295_20060214_125152_raw.mb56.gz 5.22MB Simrad multibeam vendor format
0296_20060214_135152_raw.mb56.gz 5.42MB Simrad multibeam vendor format
0297_20060214_145152_raw.mb56.gz 5.76MB Simrad multibeam vendor format
0298_20060214_155152_raw.mb56.gz 5.71MB Simrad multibeam vendor format
0299_20060214_165150_raw.mb56.gz 5.46MB Simrad multibeam vendor format
0300_20060214_175150_raw.mb56.gz 5.29MB Simrad multibeam vendor format
0301_20060214_185150_raw.mb56.gz 5.53MB Simrad multibeam vendor format
0302_20060214_195150_raw.mb56.gz 5.42MB Simrad multibeam vendor format
0303_20060214_205151_raw.mb56.gz 300.8KB Simrad multibeam vendor format
0305_20060214_205518_raw.mb56.gz 5.54MB Simrad multibeam vendor format
0306_20060214_215518_raw.mb56.gz 5.33MB Simrad multibeam vendor format
0307_20060214_225518_raw.mb56.gz 5.57MB Simrad multibeam vendor format
0308_20060214_235518_raw.mb56.gz 5.35MB Simrad multibeam vendor format
0309_20060215_005518_raw.mb56.gz 5.43MB Simrad multibeam vendor format
0310_20060215_015518_raw.mb56.gz 5.71MB Simrad multibeam vendor format
0311_20060215_025518_raw.mb56.gz 5.93MB Simrad multibeam vendor format
0312_20060215_035519_raw.mb56.gz 5.86MB Simrad multibeam vendor format
0313_20060215_045519_raw.mb56.gz 5.82MB Simrad multibeam vendor format
0314_20060215_055519_raw.mb56.gz 6.28MB Simrad multibeam vendor format
0315_20060215_065519_raw.mb56.gz 5.66MB Simrad multibeam vendor format
0316_20060215_075519_raw.mb56.gz 6.00MB Simrad multibeam vendor format
0317_20060215_085519_raw.mb56.gz 5.79MB Simrad multibeam vendor format
0318_20060215_095519_raw.mb56.gz 6.33MB Simrad multibeam vendor format
0319_20060215_105520_raw.mb56.gz 6.30MB Simrad multibeam vendor format
0320_20060215_115520_raw.mb56.gz 5.98MB Simrad multibeam vendor format
0321_20060215_125520_raw.mb56.gz 5.92MB Simrad multibeam vendor format
0322_20060215_135520_raw.mb56.gz 6.17MB Simrad multibeam vendor format
0323_20060215_145520_raw.mb56.gz 6.98MB Simrad multibeam vendor format
0324_20060215_155520_raw.mb56.gz 6.67MB Simrad multibeam vendor format
0325_20060215_165520_raw.mb56.gz 6.46MB Simrad multibeam vendor format
0326_20060215_175520_raw.mb56.gz 4.92MB Simrad multibeam vendor format
0327_20060215_185520_raw.mb56.gz 2.00MB Simrad multibeam vendor format
0328_20060215_191639_raw.mb56.gz 5.90MB Simrad multibeam vendor format
0329_20060215_201639_raw.mb56.gz 5.31MB Simrad multibeam vendor format
0330_20060215_211640_raw.mb56.gz 5.24MB Simrad multibeam vendor format
0331_20060215_221640_raw.mb56.gz 5.04MB Simrad multibeam vendor format
0332_20060215_231640_raw.mb56.gz 5.59MB Simrad multibeam vendor format
0333_20060216_001640_raw.mb56.gz 5.37MB Simrad multibeam vendor format
0334_20060216_011640_raw.mb56.gz 5.46MB Simrad multibeam vendor format
0335_20060216_021640_raw.mb56.gz 5.53MB Simrad multibeam vendor format
0336_20060216_031640_raw.mb56.gz 5.84MB Simrad multibeam vendor format
0337_20060216_041640_raw.mb56.gz 3.03MB Simrad multibeam vendor format
0338_20060216_044728_raw.mb56.gz 5.94MB Simrad multibeam vendor format
0339_20060216_054728_raw.mb56.gz 4.06MB Simrad multibeam vendor format
0340_20060216_062913_raw.mb56.gz 5.80MB Simrad multibeam vendor format
0341_20060216_072913_raw.mb56.gz 5.29MB Simrad multibeam vendor format
0342_20060216_082913_raw.mb56.gz 5.71MB Simrad multibeam vendor format
0343_20060216_092913_raw.mb56.gz 5.93MB Simrad multibeam vendor format
0344_20060216_102914_raw.mb56.gz 6.03MB Simrad multibeam vendor format
0345_20060216_112914_raw.mb56.gz 6.01MB Simrad multibeam vendor format
0346_20060216_122914_raw.mb56.gz 6.39MB Simrad multibeam vendor format
0347_20060216_132914_raw.mb56.gz 6.43MB Simrad multibeam vendor format
0348_20060216_142914_raw.mb56.gz 6.11MB Simrad multibeam vendor format
0349_20060216_152914_raw.mb56.gz 6.38MB Simrad multibeam vendor format
0350_20060216_162914_raw.mb56.gz 6.32MB Simrad multibeam vendor format
0351_20060216_172914_raw.mb56.gz 6.08MB Simrad multibeam vendor format
0352_20060216_182915_raw.mb56.gz 5.73MB Simrad multibeam vendor format
0353_20060216_192915_raw.mb56.gz 5.33MB Simrad multibeam vendor format
0354_20060216_202915_raw.mb56.gz 5.29MB Simrad multibeam vendor format
0355_20060216_212915_raw.mb56.gz 5.11MB Simrad multibeam vendor format
0356_20060216_222915_raw.mb56.gz 5.55MB Simrad multibeam vendor format
0357_20060216_232913_raw.mb56.gz 5.71MB Simrad multibeam vendor format
0358_20060217_002913_raw.mb56.gz 5.62MB Simrad multibeam vendor format
0359_20060217_012913_raw.mb56.gz 5.70MB Simrad multibeam vendor format
0360_20060217_022914_raw.mb56.gz 5.72MB Simrad multibeam vendor format
0361_20060217_032914_raw.mb56.gz 5.56MB Simrad multibeam vendor format
0362_20060217_042914_raw.mb56.gz 5.31MB Simrad multibeam vendor format
0363_20060217_052914_raw.mb56.gz 5.57MB Simrad multibeam vendor format
0364_20060217_062914_raw.mb56.gz 5.53MB Simrad multibeam vendor format
0365_20060217_072914_raw.mb56.gz 5.40MB Simrad multibeam vendor format
0366_20060217_082914_raw.mb56.gz 5.06MB Simrad multibeam vendor format
0367_20060217_092914_raw.mb56.gz 5.63MB Simrad multibeam vendor format
0368_20060217_102915_raw.mb56.gz 5.84MB Simrad multibeam vendor format
0369_20060217_112915_raw.mb56.gz 5.68MB Simrad multibeam vendor format
0370_20060217_122915_raw.mb56.gz 5.46MB Simrad multibeam vendor format
0371_20060217_132915_raw.mb56.gz 5.50MB Simrad multibeam vendor format
0372_20060217_142915_raw.mb56.gz 3.84MB Simrad multibeam vendor format
0373_20060217_151242_raw.mb56.gz 5.49MB Simrad multibeam vendor format
0374_20060217_161242_raw.mb56.gz 5.44MB Simrad multibeam vendor format
0375_20060217_171242_raw.mb56.gz 3.01MB Simrad multibeam vendor format
0376_20060217_174945_raw.mb56.gz 5.50MB Simrad multibeam vendor format
0377_20060217_184945_raw.mb56.gz 5.47MB Simrad multibeam vendor format
0378_20060217_194945_raw.mb56.gz 5.36MB Simrad multibeam vendor format
0379_20060217_204945_raw.mb56.gz 5.61MB Simrad multibeam vendor format
0380_20060217_214945_raw.mb56.gz 5.54MB Simrad multibeam vendor format
0381_20060217_224945_raw.mb56.gz 5.54MB Simrad multibeam vendor format
0382_20060217_234946_raw.mb56.gz 5.72MB Simrad multibeam vendor format
0383_20060218_004946_raw.mb56.gz 5.75MB Simrad multibeam vendor format
0384_20060218_014946_raw.mb56.gz 5.64MB Simrad multibeam vendor format
0385_20060218_024946_raw.mb56.gz 5.54MB Simrad multibeam vendor format
0386_20060218_034946_raw.mb56.gz 5.48MB Simrad multibeam vendor format
0387_20060218_044946_raw.mb56.gz 5.29MB Simrad multibeam vendor format
0388_20060218_054946_raw.mb56.gz 5.23MB Simrad multibeam vendor format
0389_20060218_064946_raw.mb56.gz 5.15MB Simrad multibeam vendor format
0390_20060218_074946_raw.mb56.gz 5.12MB Simrad multibeam vendor format
0391_20060218_084947_raw.mb56.gz 5.09MB Simrad multibeam vendor format
0392_20060218_094947_raw.mb56.gz 5.39MB Simrad multibeam vendor format
0393_20060218_104947_raw.mb56.gz 5.42MB Simrad multibeam vendor format
0394_20060218_114947_raw.mb56.gz 5.33MB Simrad multibeam vendor format
0395_20060218_124947_raw.mb56.gz 5.33MB Simrad multibeam vendor format
0396_20060218_134947_raw.mb56.gz 5.62MB Simrad multibeam vendor format
0397_20060218_144948_raw.mb56.gz 7.05MB Simrad multibeam vendor format
0398_20060218_154948_raw.mb56.gz 6.65MB Simrad multibeam vendor format
0399_20060218_164948_raw.mb56.gz 1.65MB Simrad multibeam vendor format
0400_20060218_170632_raw.mb56.gz 5.83MB Simrad multibeam vendor format
0401_20060218_180632_raw.mb56.gz 5.70MB Simrad multibeam vendor format
0402_20060218_190632_raw.mb56.gz 5.85MB Simrad multibeam vendor format
0403_20060218_200632_raw.mb56.gz 1.52MB Simrad multibeam vendor format
0404_20060218_202056_raw.mb56.gz 5.94MB Simrad multibeam vendor format
0405_20060218_212056_raw.mb56.gz 6.16MB Simrad multibeam vendor format
0406_20060218_222057_raw.mb56.gz 6.44MB Simrad multibeam vendor format
0407_20060218_232057_raw.mb56.gz 7.30MB Simrad multibeam vendor format
0408_20060219_002057_raw.mb56.gz 7.56MB Simrad multibeam vendor format
0409_20060219_012057_raw.mb56.gz 8.30MB Simrad multibeam vendor format
0410_20060219_022057_raw.mb56.gz 7.52MB Simrad multibeam vendor format
0411_20060219_032057_raw.mb56.gz 7.16MB Simrad multibeam vendor format
0412_20060219_042057_raw.mb56.gz 7.07MB Simrad multibeam vendor format
0413_20060219_052058_raw.mb56.gz 6.66MB Simrad multibeam vendor format
0414_20060219_062056_raw.mb56.gz 6.25MB Simrad multibeam vendor format
0415_20060219_072056_raw.mb56.gz 7.17MB Simrad multibeam vendor format
0416_20060219_082056_raw.mb56.gz 7.90MB Simrad multibeam vendor format
0417_20060219_092057_raw.mb56.gz 7.98MB Simrad multibeam vendor format
0418_20060219_102058_raw.mb56.gz 8.45MB Simrad multibeam vendor format
0419_20060219_112058_raw.mb56.gz 9.40MB Simrad multibeam vendor format
0420_20060219_122059_raw.mb56.gz 8.77MB Simrad multibeam vendor format
0421_20060219_132059_raw.mb56.gz 8.05MB Simrad multibeam vendor format
0422_20060219_142059_raw.mb56.gz 8.66MB Simrad multibeam vendor format
0423_20060219_152059_raw.mb56.gz 8.47MB Simrad multibeam vendor format
0424_20060219_162059_raw.mb56.gz 4.94MB Simrad multibeam vendor format
0425_20060219_165820_raw.mb56.gz 8.55MB Simrad multibeam vendor format
0426_20060219_175820_raw.mb56.gz 8.09MB Simrad multibeam vendor format
0427_20060219_185820_raw.mb56.gz 9.73MB Simrad multibeam vendor format
0428_20060219_195820_raw.mb56.gz 10.77MB Simrad multibeam vendor format
0429_20060219_205820_raw.mb56.gz 10.56MB Simrad multibeam vendor format
0430_20060219_215820_raw.mb56.gz 9.88MB Simrad multibeam vendor format
0431_20060219_225820_raw.mb56.gz 10.69MB Simrad multibeam vendor format
0432_20060219_235821_raw.mb56.gz 10.93MB Simrad multibeam vendor format
0433_20060220_005821_raw.mb56.gz 9.19MB Simrad multibeam vendor format
0434_20060220_014116_raw.mb56.gz 12.75MB Simrad multibeam vendor format
0435_20060220_024116_raw.mb56.gz 13.92MB Simrad multibeam vendor format
0436_20060220_034117_raw.mb56.gz 15.01MB Simrad multibeam vendor format
0437_20060220_044117_raw.mb56.gz 15.43MB Simrad multibeam vendor format
0438_20060220_054117_raw.mb56.gz 15.54MB Simrad multibeam vendor format
0439_20060220_064117_raw.mb56.gz 17.52MB Simrad multibeam vendor format
0440_20060220_074117_raw.mb56.gz 16.68MB Simrad multibeam vendor format
0441_20060220_084117_raw.mb56.gz 21.27MB Simrad multibeam vendor format
0442_20060220_094117_raw.mb56.gz 24.59MB Simrad multibeam vendor format
0443_20060220_104118_raw.mb56.gz 20.41MB Simrad multibeam vendor format
0444_20060220_114118_raw.mb56.gz 15.05MB Simrad multibeam vendor format
0445_20060220_124118_raw.mb56.gz 5.35MB Simrad multibeam vendor format
0446_20060220_134118_raw.mb56.gz 5.32MB Simrad multibeam vendor format
0447_20060220_144118_raw.mb56.gz 6.41MB Simrad multibeam vendor format
0448_20060220_154003_raw.mb56.gz 7.78MB Simrad multibeam vendor format
0449_20060220_164003_raw.mb56.gz 10.63MB Simrad multibeam vendor format
0450_20060220_174003_raw.mb56.gz 7.44MB Simrad multibeam vendor format
0451_20060220_184003_raw.mb56.gz 5.95MB Simrad multibeam vendor format
0452_20060220_194004_raw.mb56.gz 5.29MB Simrad multibeam vendor format
0453_20060220_204004_raw.mb56.gz 6.03MB Simrad multibeam vendor format
0454_20060220_214004_raw.mb56.gz 5.74MB Simrad multibeam vendor format
0455_20060220_224004_raw.mb56.gz 5.76MB Simrad multibeam vendor format
0456_20060220_234004_raw.mb56.gz 2.11MB Simrad multibeam vendor format
0457_20060221_000411_raw.mb56.gz 5.47MB Simrad multibeam vendor format
0458_20060221_010412_raw.mb56.gz 5.47MB Simrad multibeam vendor format
0459_20060221_020412_raw.mb56.gz 5.21MB Simrad multibeam vendor format
0460_20060221_030412_raw.mb56.gz 6.27MB Simrad multibeam vendor format
0461_20060221_040412_raw.mb56.gz 7.53MB Simrad multibeam vendor format
0462_20060221_050412_raw.mb56.gz 7.40MB Simrad multibeam vendor format
0463_20060221_060412_raw.mb56.gz 7.98MB Simrad multibeam vendor format
0464_20060221_070412_raw.mb56.gz 10.59MB Simrad multibeam vendor format
0465_20060221_080412_raw.mb56.gz 10.08MB Simrad multibeam vendor format
0466_20060221_090413_raw.mb56.gz 6.86MB Simrad multibeam vendor format
0467_20060221_100413_raw.mb56.gz 5.77MB Simrad multibeam vendor format
0468_20060221_110413_raw.mb56.gz 5.22MB Simrad multibeam vendor format
0469_20060221_120413_raw.mb56.gz 7.16MB Simrad multibeam vendor format
0470_20060221_130413_raw.mb56.gz 11.74MB Simrad multibeam vendor format

Full Resolution Bathymetry (processed): 467

Files File Size Description
0001_20060202_164211p.mb57.gz 9.35MB Simrad multibeam processing format
0002_20060202_174211p.mb57.gz 11.33MB Simrad multibeam processing format
0003_20060202_184212p.mb57.gz 14.23MB Simrad multibeam processing format
0004_20060202_194212p.mb57.gz 9.38MB Simrad multibeam processing format
0005_20060202_204212p.mb57.gz 9.93MB Simrad multibeam processing format
0006_20060202_214212p.mb57.gz 10.37MB Simrad multibeam processing format
0007_20060202_224212p.mb57.gz 10.82MB Simrad multibeam processing format
0008_20060202_234155p.mb57.gz 12.24MB Simrad multibeam processing format
0009_20060203_004155p.mb57.gz 12.77MB Simrad multibeam processing format
0010_20060203_014155p.mb57.gz 12.95MB Simrad multibeam processing format
0011_20060203_024155p.mb57.gz 13.05MB Simrad multibeam processing format
0012_20060203_034156p.mb57.gz 13.28MB Simrad multibeam processing format
0013_20060203_044156p.mb57.gz 13.29MB Simrad multibeam processing format
0014_20060203_054154p.mb57.gz 13.45MB Simrad multibeam processing format
0015_20060203_064154p.mb57.gz 13.91MB Simrad multibeam processing format
0016_20060203_074154p.mb57.gz 14.49MB Simrad multibeam processing format
0017_20060203_084154p.mb57.gz 15.25MB Simrad multibeam processing format
0018_20060203_094154p.mb57.gz 15.96MB Simrad multibeam processing format
0019_20060203_104154p.mb57.gz 16.10MB Simrad multibeam processing format
0020_20060203_114155p.mb57.gz 16.10MB Simrad multibeam processing format
0021_20060203_124155p.mb57.gz 15.04MB Simrad multibeam processing format
0022_20060203_134155p.mb57.gz 14.97MB Simrad multibeam processing format
0023_20060203_144155p.mb57.gz 15.45MB Simrad multibeam processing format
0024_20060203_154155p.mb57.gz 16.17MB Simrad multibeam processing format
0025_20060203_164155p.mb57.gz 16.79MB Simrad multibeam processing format
0026_20060203_174155p.mb57.gz 16.96MB Simrad multibeam processing format
0027_20060203_184156p.mb57.gz 17.57MB Simrad multibeam processing format
0028_20060203_194156p.mb57.gz 15.02MB Simrad multibeam processing format
0029_20060203_204156p.mb57.gz 12.64MB Simrad multibeam processing format
0030_20060203_214156p.mb57.gz 10.74MB Simrad multibeam processing format
0031_20060203_224156p.mb57.gz 7.18MB Simrad multibeam processing format
0032_20060203_234156p.mb57.gz 1.74MB Simrad multibeam processing format
0033_20060204_000137p.mb57.gz 5.49MB Simrad multibeam processing format
0034_20060204_010137p.mb57.gz 5.58MB Simrad multibeam processing format
0035_20060204_020137p.mb57.gz 5.65MB Simrad multibeam processing format
0036_20060204_030137p.mb57.gz 5.61MB Simrad multibeam processing format
0037_20060204_040138p.mb57.gz 5.87MB Simrad multibeam processing format
0038_20060204_050138p.mb57.gz 6.77MB Simrad multibeam processing format
0039_20060204_060138p.mb57.gz 7.76MB Simrad multibeam processing format
0040_20060204_070138p.mb57.gz 7.93MB Simrad multibeam processing format
0041_20060204_080138p.mb57.gz 9.26MB Simrad multibeam processing format
0042_20060204_090138p.mb57.gz 7.31MB Simrad multibeam processing format
0043_20060204_094722p.mb57.gz 9.50MB Simrad multibeam processing format
0044_20060204_104722p.mb57.gz 8.46MB Simrad multibeam processing format
0045_20060204_114722p.mb57.gz 2.49MB Simrad multibeam processing format
0046_20060204_120641p.mb57.gz 8.25MB Simrad multibeam processing format
0047_20060204_130641p.mb57.gz 8.57MB Simrad multibeam processing format
0048_20060204_140641p.mb57.gz 7.88MB Simrad multibeam processing format
0049_20060204_150641p.mb57.gz 6.29MB Simrad multibeam processing format
0050_20060204_160641p.mb57.gz 5.74MB Simrad multibeam processing format
0051_20060204_170641p.mb57.gz 5.70MB Simrad multibeam processing format
0052_20060204_180641p.mb57.gz 5.60MB Simrad multibeam processing format
0053_20060204_190642p.mb57.gz 5.42MB Simrad multibeam processing format
0054_20060204_200642p.mb57.gz 5.38MB Simrad multibeam processing format
0055_20060204_210642p.mb57.gz 5.34MB Simrad multibeam processing format
0056_20060204_220642p.mb57.gz 5.41MB Simrad multibeam processing format
0057_20060204_230642p.mb57.gz 5.34MB Simrad multibeam processing format
0059_20060205_000657p.mb57.gz 4.58MB Simrad multibeam processing format
0060_20060205_010657p.mb57.gz 4.98MB Simrad multibeam processing format
0061_20060205_020657p.mb57.gz 4.55MB Simrad multibeam processing format
0062_20060205_030657p.mb57.gz 5.10MB Simrad multibeam processing format
0063_20060205_040657p.mb57.gz 5.10MB Simrad multibeam processing format
0064_20060205_050657p.mb57.gz 5.33MB Simrad multibeam processing format
0065_20060205_060658p.mb57.gz 5.30MB Simrad multibeam processing format
0066_20060205_070658p.mb57.gz 5.14MB Simrad multibeam processing format
0067_20060205_080658p.mb57.gz 5.19MB Simrad multibeam processing format
0068_20060205_090658p.mb57.gz 4.91MB Simrad multibeam processing format
0069_20060205_100658p.mb57.gz 4.95MB Simrad multibeam processing format
0070_20060205_110658p.mb57.gz 4.87MB Simrad multibeam processing format
0071_20060205_120657p.mb57.gz 4.96MB Simrad multibeam processing format
0072_20060205_130657p.mb57.gz 5.00MB Simrad multibeam processing format
0073_20060205_140657p.mb57.gz 4.91MB Simrad multibeam processing format
0074_20060205_150657p.mb57.gz 4.92MB Simrad multibeam processing format
0075_20060205_160657p.mb57.gz 5.03MB Simrad multibeam processing format
0076_20060205_170657p.mb57.gz 4.43MB Simrad multibeam processing format
0077_20060205_180657p.mb57.gz 4.60MB Simrad multibeam processing format
0078_20060205_190657p.mb57.gz 4.33MB Simrad multibeam processing format
0079_20060205_200658p.mb57.gz 4.65MB Simrad multibeam processing format
0080_20060205_210658p.mb57.gz 4.79MB Simrad multibeam processing format
0081_20060205_220658p.mb57.gz 2.45MB Simrad multibeam processing format
0082_20060205_223930p.mb57.gz 4.58MB Simrad multibeam processing format
0083_20060205_233930p.mb57.gz 4.64MB Simrad multibeam processing format
0084_20060206_003930p.mb57.gz 4.81MB Simrad multibeam processing format
0085_20060206_013930p.mb57.gz 4.64MB Simrad multibeam processing format
0086_20060206_023930p.mb57.gz 4.54MB Simrad multibeam processing format
0087_20060206_033930p.mb57.gz 4.12MB Simrad multibeam processing format
0088_20060206_043930p.mb57.gz 4.02MB Simrad multibeam processing format
0089_20060206_053931p.mb57.gz 4.29MB Simrad multibeam processing format
0090_20060206_063931p.mb57.gz 4.33MB Simrad multibeam processing format
0091_20060206_073931p.mb57.gz 4.27MB Simrad multibeam processing format
0092_20060206_083931p.mb57.gz 4.35MB Simrad multibeam processing format
0093_20060206_093931p.mb57.gz 4.28MB Simrad multibeam processing format
0094_20060206_103931p.mb57.gz 4.28MB Simrad multibeam processing format
0095_20060206_113931p.mb57.gz 4.21MB Simrad multibeam processing format
0096_20060206_123932p.mb57.gz 4.26MB Simrad multibeam processing format
0097_20060206_133932p.mb57.gz 4.24MB Simrad multibeam processing format
0098_20060206_143932p.mb57.gz 4.23MB Simrad multibeam processing format
0099_20060206_153932p.mb57.gz 4.22MB Simrad multibeam processing format
0100_20060206_163932p.mb57.gz 4.15MB Simrad multibeam processing format
0101_20060206_173932p.mb57.gz 4.22MB Simrad multibeam processing format
0102_20060206_183932p.mb57.gz 4.25MB Simrad multibeam processing format
0103_20060206_193932p.mb57.gz 4.14MB Simrad multibeam processing format
0104_20060206_203933p.mb57.gz 4.14MB Simrad multibeam processing format
0105_20060206_213933p.mb57.gz 4.18MB Simrad multibeam processing format
0106_20060206_223933p.mb57.gz 1.34MB Simrad multibeam processing format
0107_20060206_225906p.mb57.gz 4.19MB Simrad multibeam processing format
0108_20060206_235906p.mb57.gz 4.22MB Simrad multibeam processing format
0109_20060207_005906p.mb57.gz 4.25MB Simrad multibeam processing format
0110_20060207_015906p.mb57.gz 4.17MB Simrad multibeam processing format
0111_20060207_025907p.mb57.gz 4.17MB Simrad multibeam processing format
0112_20060207_035907p.mb57.gz 4.20MB Simrad multibeam processing format
0113_20060207_045907p.mb57.gz 4.28MB Simrad multibeam processing format
0114_20060207_055907p.mb57.gz 4.32MB Simrad multibeam processing format
0115_20060207_065907p.mb57.gz 4.26MB Simrad multibeam processing format
0116_20060207_075907p.mb57.gz 4.31MB Simrad multibeam processing format
0117_20060207_085907p.mb57.gz 4.37MB Simrad multibeam processing format
0118_20060207_095908p.mb57.gz 4.36MB Simrad multibeam processing format
0119_20060207_105908p.mb57.gz 4.33MB Simrad multibeam processing format
0120_20060207_115908p.mb57.gz 4.40MB Simrad multibeam processing format
0121_20060207_125908p.mb57.gz 4.49MB Simrad multibeam processing format
0122_20060207_135908p.mb57.gz 4.56MB Simrad multibeam processing format
0123_20060207_145909p.mb57.gz 4.49MB Simrad multibeam processing format
0124_20060207_155909p.mb57.gz 4.66MB Simrad multibeam processing format
0125_20060207_165909p.mb57.gz 4.66MB Simrad multibeam processing format
0126_20060207_175909p.mb57.gz 4.67MB Simrad multibeam processing format
0127_20060207_185907p.mb57.gz 4.54MB Simrad multibeam processing format
0128_20060207_195907p.mb57.gz 4.64MB Simrad multibeam processing format
0129_20060207_205907p.mb57.gz 4.74MB Simrad multibeam processing format
0130_20060207_215908p.mb57.gz 4.65MB Simrad multibeam processing format
0131_20060207_225908p.mb57.gz 1.04MB Simrad multibeam processing format
0132_20060207_231205p.mb57.gz 4.68MB Simrad multibeam processing format
0133_20060208_001205p.mb57.gz 4.59MB Simrad multibeam processing format
0134_20060208_011205p.mb57.gz 4.71MB Simrad multibeam processing format
0135_20060208_021205p.mb57.gz 4.72MB Simrad multibeam processing format
0136_20060208_031205p.mb57.gz 4.96MB Simrad multibeam processing format
0137_20060208_041205p.mb57.gz 5.03MB Simrad multibeam processing format
0138_20060208_051206p.mb57.gz 4.88MB Simrad multibeam processing format
0139_20060208_061206p.mb57.gz 5.03MB Simrad multibeam processing format
0140_20060208_071206p.mb57.gz 4.90MB Simrad multibeam processing format
0141_20060208_081206p.mb57.gz 5.01MB Simrad multibeam processing format
0142_20060208_091206p.mb57.gz 4.92MB Simrad multibeam processing format
0143_20060208_101207p.mb57.gz 4.89MB Simrad multibeam processing format
0144_20060208_111207p.mb57.gz 5.02MB Simrad multibeam processing format
0145_20060208_121207p.mb57.gz 4.85MB Simrad multibeam processing format
0146_20060208_131207p.mb57.gz 4.82MB Simrad multibeam processing format
0147_20060208_141207p.mb57.gz 4.82MB Simrad multibeam processing format
0148_20060208_151207p.mb57.gz 4.90MB Simrad multibeam processing format
0149_20060208_161208p.mb57.gz 4.74MB Simrad multibeam processing format
0150_20060208_171208p.mb57.gz 4.79MB Simrad multibeam processing format
0151_20060208_181208p.mb57.gz 4.96MB Simrad multibeam processing format
0152_20060208_191208p.mb57.gz 4.87MB Simrad multibeam processing format
0153_20060208_201208p.mb57.gz 4.82MB Simrad multibeam processing format
0154_20060208_211208p.mb57.gz 1.93MB Simrad multibeam processing format
0155_20060208_213601p.mb57.gz 4.89MB Simrad multibeam processing format
0156_20060208_223601p.mb57.gz 4.86MB Simrad multibeam processing format
0157_20060208_233601p.mb57.gz 4.68MB Simrad multibeam processing format
0158_20060209_003601p.mb57.gz 4.87MB Simrad multibeam processing format
0159_20060209_013601p.mb57.gz 4.86MB Simrad multibeam processing format
0160_20060209_023601p.mb57.gz 4.84MB Simrad multibeam processing format
0161_20060209_033601p.mb57.gz 4.86MB Simrad multibeam processing format
0162_20060209_043602p.mb57.gz 4.89MB Simrad multibeam processing format
0163_20060209_053602p.mb57.gz 5.02MB Simrad multibeam processing format
0164_20060209_063602p.mb57.gz 4.95MB Simrad multibeam processing format
0165_20060209_073602p.mb57.gz 4.93MB Simrad multibeam processing format
0166_20060209_083602p.mb57.gz 5.00MB Simrad multibeam processing format
0167_20060209_093602p.mb57.gz 4.95MB Simrad multibeam processing format
0168_20060209_103603p.mb57.gz 4.85MB Simrad multibeam processing format
0169_20060209_113603p.mb57.gz 4.81MB Simrad multibeam processing format
0170_20060209_123603p.mb57.gz 4.93MB Simrad multibeam processing format
0171_20060209_133603p.mb57.gz 4.97MB Simrad multibeam processing format
0172_20060209_143603p.mb57.gz 4.92MB Simrad multibeam processing format
0173_20060209_153603p.mb57.gz 4.88MB Simrad multibeam processing format
0174_20060209_163604p.mb57.gz 4.96MB Simrad multibeam processing format
0175_20060209_173604p.mb57.gz 4.98MB Simrad multibeam processing format
0176_20060209_183604p.mb57.gz 4.54MB Simrad multibeam processing format
0177_20060209_193604p.mb57.gz 4.78MB Simrad multibeam processing format
0178_20060209_203604p.mb57.gz 4.70MB Simrad multibeam processing format
0179_20060209_213604p.mb57.gz 0.53MB Simrad multibeam processing format
0180_20060209_214257p.mb57.gz 4.67MB Simrad multibeam processing format
0181_20060209_224257p.mb57.gz 4.53MB Simrad multibeam processing format
0182_20060209_234258p.mb57.gz 4.65MB Simrad multibeam processing format
0183_20060210_004258p.mb57.gz 4.49MB Simrad multibeam processing format
0184_20060210_014258p.mb57.gz 4.37MB Simrad multibeam processing format
0185_20060210_024256p.mb57.gz 4.51MB Simrad multibeam processing format
0186_20060210_034256p.mb57.gz 4.74MB Simrad multibeam processing format
0187_20060210_044256p.mb57.gz 4.70MB Simrad multibeam processing format
0188_20060210_054256p.mb57.gz 4.69MB Simrad multibeam processing format
0189_20060210_064257p.mb57.gz 4.96MB Simrad multibeam processing format
0190_20060210_074257p.mb57.gz 4.90MB Simrad multibeam processing format
0191_20060210_084257p.mb57.gz 4.96MB Simrad multibeam processing format
0192_20060210_094259p.mb57.gz 4.85MB Simrad multibeam processing format
0193_20060210_104300p.mb57.gz 4.93MB Simrad multibeam processing format
0194_20060210_114300p.mb57.gz 5.13MB Simrad multibeam processing format
0195_20060210_124300p.mb57.gz 5.04MB Simrad multibeam processing format
0196_20060210_134300p.mb57.gz 4.89MB Simrad multibeam processing format
0197_20060210_144300p.mb57.gz 4.98MB Simrad multibeam processing format
0198_20060210_154301p.mb57.gz 4.80MB Simrad multibeam processing format
0199_20060210_164301p.mb57.gz 4.88MB Simrad multibeam processing format
0200_20060210_174301p.mb57.gz 5.03MB Simrad multibeam processing format
0201_20060210_184301p.mb57.gz 4.99MB Simrad multibeam processing format
0202_20060210_194301p.mb57.gz 4.46MB Simrad multibeam processing format
0203_20060210_203917p.mb57.gz 4.88MB Simrad multibeam processing format
0204_20060210_213917p.mb57.gz 4.79MB Simrad multibeam processing format
0205_20060210_223917p.mb57.gz 4.76MB Simrad multibeam processing format
0206_20060210_233917p.mb57.gz 4.61MB Simrad multibeam processing format
0207_20060211_003917p.mb57.gz 4.86MB Simrad multibeam processing format
0208_20060211_013917p.mb57.gz 4.86MB Simrad multibeam processing format
0209_20060211_023917p.mb57.gz 4.91MB Simrad multibeam processing format
0210_20060211_033917p.mb57.gz 4.99MB Simrad multibeam processing format
0211_20060211_043918p.mb57.gz 4.94MB Simrad multibeam processing format
0212_20060211_053918p.mb57.gz 4.96MB Simrad multibeam processing format
0213_20060211_063918p.mb57.gz 5.16MB Simrad multibeam processing format
0214_20060211_073918p.mb57.gz 5.26MB Simrad multibeam processing format
0215_20060211_083918p.mb57.gz 5.16MB Simrad multibeam processing format
0216_20060211_093918p.mb57.gz 5.28MB Simrad multibeam processing format
0217_20060211_103919p.mb57.gz 5.17MB Simrad multibeam processing format
0218_20060211_113919p.mb57.gz 5.10MB Simrad multibeam processing format
0219_20060211_123919p.mb57.gz 5.03MB Simrad multibeam processing format
0220_20060211_133919p.mb57.gz 4.92MB Simrad multibeam processing format
0221_20060211_143919p.mb57.gz 5.04MB Simrad multibeam processing format
0222_20060211_153920p.mb57.gz 5.06MB Simrad multibeam processing format
0223_20060211_163920p.mb57.gz 5.05MB Simrad multibeam processing format
0224_20060211_173920p.mb57.gz 4.95MB Simrad multibeam processing format
0225_20060211_183920p.mb57.gz 5.03MB Simrad multibeam processing format
0226_20060211_193920p.mb57.gz 4.99MB Simrad multibeam processing format
0227_20060211_203920p.mb57.gz 0.94MB Simrad multibeam processing format
0228_20060211_205052p.mb57.gz 5.11MB Simrad multibeam processing format
0229_20060211_215052p.mb57.gz 5.05MB Simrad multibeam processing format
0230_20060211_225052p.mb57.gz 5.11MB Simrad multibeam processing format
0231_20060211_235052p.mb57.gz 5.00MB Simrad multibeam processing format
0232_20060212_005053p.mb57.gz 4.65MB Simrad multibeam processing format
0233_20060212_015054p.mb57.gz 4.69MB Simrad multibeam processing format
0234_20060212_025054p.mb57.gz 4.70MB Simrad multibeam processing format
0235_20060212_035054p.mb57.gz 3.67MB Simrad multibeam processing format
0236_20060212_043802p.mb57.gz 4.83MB Simrad multibeam processing format
0237_20060212_053802p.mb57.gz 4.83MB Simrad multibeam processing format
0238_20060212_063802p.mb57.gz 4.82MB Simrad multibeam processing format
0239_20060212_073802p.mb57.gz 4.73MB Simrad multibeam processing format
0240_20060212_083803p.mb57.gz 4.68MB Simrad multibeam processing format
0241_20060212_093801p.mb57.gz 4.75MB Simrad multibeam processing format
0242_20060212_103801p.mb57.gz 4.74MB Simrad multibeam processing format
0243_20060212_113801p.mb57.gz 4.78MB Simrad multibeam processing format
0244_20060212_123802p.mb57.gz 4.72MB Simrad multibeam processing format
0245_20060212_133802p.mb57.gz 4.72MB Simrad multibeam processing format
0246_20060212_143802p.mb57.gz 4.73MB Simrad multibeam processing format
0247_20060212_153802p.mb57.gz 4.81MB Simrad multibeam processing format
0248_20060212_163802p.mb57.gz 4.72MB Simrad multibeam processing format
0249_20060212_173802p.mb57.gz 4.82MB Simrad multibeam processing format
0250_20060212_183802p.mb57.gz 4.33MB Simrad multibeam processing format
0251_20060212_193803p.mb57.gz 1.05MB Simrad multibeam processing format
0252_20060212_195219p.mb57.gz 4.41MB Simrad multibeam processing format
0253_20060212_205220p.mb57.gz 4.39MB Simrad multibeam processing format
0254_20060212_215220p.mb57.gz 4.45MB Simrad multibeam processing format
0255_20060212_225220p.mb57.gz 4.43MB Simrad multibeam processing format
0256_20060212_235220p.mb57.gz 4.44MB Simrad multibeam processing format
0257_20060213_005220p.mb57.gz 4.48MB Simrad multibeam processing format
0258_20060213_015220p.mb57.gz 4.56MB Simrad multibeam processing format
0259_20060213_025220p.mb57.gz 4.46MB Simrad multibeam processing format
0260_20060213_035221p.mb57.gz 4.62MB Simrad multibeam processing format
0261_20060213_045221p.mb57.gz 1.71MB Simrad multibeam processing format
0263_20060213_051555p.mb57.gz 4.43MB Simrad multibeam processing format
0264_20060213_061555p.mb57.gz 4.43MB Simrad multibeam processing format
0265_20060213_071556p.mb57.gz 4.43MB Simrad multibeam processing format
0266_20060213_081556p.mb57.gz 4.54MB Simrad multibeam processing format
0267_20060213_091556p.mb57.gz 4.44MB Simrad multibeam processing format
0268_20060213_101556p.mb57.gz 4.42MB Simrad multibeam processing format
0269_20060213_111557p.mb57.gz 4.48MB Simrad multibeam processing format
0270_20060213_121557p.mb57.gz 4.46MB Simrad multibeam processing format
0271_20060213_131557p.mb57.gz 4.52MB Simrad multibeam processing format
0272_20060213_141557p.mb57.gz 4.69MB Simrad multibeam processing format
0273_20060213_151557p.mb57.gz 4.62MB Simrad multibeam processing format
0274_20060213_161557p.mb57.gz 4.65MB Simrad multibeam processing format
0275_20060213_171557p.mb57.gz 4.53MB Simrad multibeam processing format
0276_20060213_181557p.mb57.gz 4.57MB Simrad multibeam processing format
0277_20060213_191558p.mb57.gz 2.74MB Simrad multibeam processing format
0278_20060213_195149p.mb57.gz 4.63MB Simrad multibeam processing format
0279_20060213_205149p.mb57.gz 4.61MB Simrad multibeam processing format
0280_20060213_215149p.mb57.gz 4.67MB Simrad multibeam processing format
0281_20060213_225149p.mb57.gz 4.54MB Simrad multibeam processing format
0282_20060213_235150p.mb57.gz 4.46MB Simrad multibeam processing format
0283_20060214_005150p.mb57.gz 4.27MB Simrad multibeam processing format
0284_20060214_015150p.mb57.gz 4.36MB Simrad multibeam processing format
0285_20060214_025150p.mb57.gz 4.43MB Simrad multibeam processing format
0286_20060214_035150p.mb57.gz 4.31MB Simrad multibeam processing format
0287_20060214_045150p.mb57.gz 4.48MB Simrad multibeam processing format
0288_20060214_055150p.mb57.gz 4.43MB Simrad multibeam processing format
0289_20060214_065151p.mb57.gz 4.37MB Simrad multibeam processing format
0290_20060214_075151p.mb57.gz 4.45MB Simrad multibeam processing format
0291_20060214_085151p.mb57.gz 4.48MB Simrad multibeam processing format
0292_20060214_095151p.mb57.gz 4.41MB Simrad multibeam processing format
0293_20060214_105151p.mb57.gz 4.15MB Simrad multibeam processing format
0294_20060214_115151p.mb57.gz 4.39MB Simrad multibeam processing format
0295_20060214_125152p.mb57.gz 4.24MB Simrad multibeam processing format
0296_20060214_135152p.mb57.gz 4.39MB Simrad multibeam processing format
0297_20060214_145152p.mb57.gz 4.42MB Simrad multibeam processing format
0298_20060214_155152p.mb57.gz 4.43MB Simrad multibeam processing format
0299_20060214_165150p.mb57.gz 4.31MB Simrad multibeam processing format
0300_20060214_175150p.mb57.gz 4.30MB Simrad multibeam processing format
0301_20060214_185150p.mb57.gz 4.42MB Simrad multibeam processing format
0302_20060214_195150p.mb57.gz 4.37MB Simrad multibeam processing format
0303_20060214_205151p.mb57.gz 231.1KB Simrad multibeam processing format
0305_20060214_205518p.mb57.gz 4.46MB Simrad multibeam processing format
0306_20060214_215518p.mb57.gz 4.29MB Simrad multibeam processing format
0307_20060214_225518p.mb57.gz 4.38MB Simrad multibeam processing format
0308_20060214_235518p.mb57.gz 4.33MB Simrad multibeam processing format
0309_20060215_005518p.mb57.gz 4.28MB Simrad multibeam processing format
0310_20060215_015518p.mb57.gz 4.52MB Simrad multibeam processing format
0311_20060215_025518p.mb57.gz 4.54MB Simrad multibeam processing format
0312_20060215_035519p.mb57.gz 4.51MB Simrad multibeam processing format
0313_20060215_045519p.mb57.gz 4.29MB Simrad multibeam processing format
0314_20060215_055519p.mb57.gz 4.76MB Simrad multibeam processing format
0315_20060215_065519p.mb57.gz 4.17MB Simrad multibeam processing format
0316_20060215_075519p.mb57.gz 4.35MB Simrad multibeam processing format
0317_20060215_085519p.mb57.gz 4.04MB Simrad multibeam processing format
0318_20060215_095519p.mb57.gz 4.55MB Simrad multibeam processing format
0319_20060215_105520p.mb57.gz 4.41MB Simrad multibeam processing format
0320_20060215_115520p.mb57.gz 4.10MB Simrad multibeam processing format
0321_20060215_125520p.mb57.gz 4.16MB Simrad multibeam processing format
0322_20060215_135520p.mb57.gz 4.26MB Simrad multibeam processing format
0323_20060215_145520p.mb57.gz 4.99MB Simrad multibeam processing format
0324_20060215_155520p.mb57.gz 4.77MB Simrad multibeam processing format
0325_20060215_165520p.mb57.gz 4.52MB Simrad multibeam processing format
0326_20060215_175520p.mb57.gz 3.72MB Simrad multibeam processing format
0327_20060215_185520p.mb57.gz 1.54MB Simrad multibeam processing format
0328_20060215_191639p.mb57.gz 4.58MB Simrad multibeam processing format
0329_20060215_201639p.mb57.gz 4.23MB Simrad multibeam processing format
0330_20060215_211640p.mb57.gz 4.20MB Simrad multibeam processing format
0331_20060215_221640p.mb57.gz 4.00MB Simrad multibeam processing format
0332_20060215_231640p.mb57.gz 4.25MB Simrad multibeam processing format
0333_20060216_001640p.mb57.gz 4.11MB Simrad multibeam processing format
0334_20060216_011640p.mb57.gz 4.29MB Simrad multibeam processing format
0335_20060216_021640p.mb57.gz 4.16MB Simrad multibeam processing format
0336_20060216_031640p.mb57.gz 4.45MB Simrad multibeam processing format
0337_20060216_041640p.mb57.gz 2.28MB Simrad multibeam processing format
0338_20060216_044728p.mb57.gz 4.48MB Simrad multibeam processing format
0339_20060216_054728p.mb57.gz 3.04MB Simrad multibeam processing format
0340_20060216_062913p.mb57.gz 4.20MB Simrad multibeam processing format
0341_20060216_072913p.mb57.gz 3.78MB Simrad multibeam processing format
0342_20060216_082913p.mb57.gz 4.10MB Simrad multibeam processing format
0343_20060216_092913p.mb57.gz 4.19MB Simrad multibeam processing format
0344_20060216_102914p.mb57.gz 4.28MB Simrad multibeam processing format
0345_20060216_112914p.mb57.gz 4.22MB Simrad multibeam processing format
0346_20060216_122914p.mb57.gz 4.32MB Simrad multibeam processing format
0347_20060216_132914p.mb57.gz 4.37MB Simrad multibeam processing format
0348_20060216_142914p.mb57.gz 4.21MB Simrad multibeam processing format
0349_20060216_152914p.mb57.gz 4.33MB Simrad multibeam processing format
0350_20060216_162914p.mb57.gz 4.35MB Simrad multibeam processing format
0351_20060216_172914p.mb57.gz 4.02MB Simrad multibeam processing format
0352_20060216_182915p.mb57.gz 3.89MB Simrad multibeam processing format
0353_20060216_192915p.mb57.gz 3.90MB Simrad multibeam processing format
0354_20060216_202915p.mb57.gz 3.81MB Simrad multibeam processing format
0355_20060216_212915p.mb57.gz 3.71MB Simrad multibeam processing format
0356_20060216_222915p.mb57.gz 3.92MB Simrad multibeam processing format
0357_20060216_232913p.mb57.gz 4.29MB Simrad multibeam processing format
0358_20060217_002913p.mb57.gz 4.35MB Simrad multibeam processing format
0359_20060217_012913p.mb57.gz 4.51MB Simrad multibeam processing format
0360_20060217_022914p.mb57.gz 4.57MB Simrad multibeam processing format
0361_20060217_032914p.mb57.gz 4.43MB Simrad multibeam processing format
0362_20060217_042914p.mb57.gz 4.24MB Simrad multibeam processing format
0363_20060217_052914p.mb57.gz 4.44MB Simrad multibeam processing format
0364_20060217_062914p.mb57.gz 4.43MB Simrad multibeam processing format
0365_20060217_072914p.mb57.gz 4.35MB Simrad multibeam processing format
0366_20060217_082914p.mb57.gz 3.89MB Simrad multibeam processing format
0367_20060217_092914p.mb57.gz 4.39MB Simrad multibeam processing format
0368_20060217_102915p.mb57.gz 4.61MB Simrad multibeam processing format
0369_20060217_112915p.mb57.gz 4.47MB Simrad multibeam processing format
0370_20060217_122915p.mb57.gz 4.31MB Simrad multibeam processing format
0371_20060217_132915p.mb57.gz 4.43MB Simrad multibeam processing format
0372_20060217_142915p.mb57.gz 3.05MB Simrad multibeam processing format
0373_20060217_151242p.mb57.gz 4.41MB Simrad multibeam processing format
0374_20060217_161242p.mb57.gz 4.34MB Simrad multibeam processing format
0375_20060217_171242p.mb57.gz 2.41MB Simrad multibeam processing format
0376_20060217_174945p.mb57.gz 4.49MB Simrad multibeam processing format
0377_20060217_184945p.mb57.gz 4.44MB Simrad multibeam processing format
0378_20060217_194945p.mb57.gz 4.28MB Simrad multibeam processing format
0379_20060217_204945p.mb57.gz 4.56MB Simrad multibeam processing format
0380_20060217_214945p.mb57.gz 4.44MB Simrad multibeam processing format
0381_20060217_224945p.mb57.gz 4.50MB Simrad multibeam processing format
0382_20060217_234946p.mb57.gz 4.70MB Simrad multibeam processing format
0383_20060218_004946p.mb57.gz 4.65MB Simrad multibeam processing format
0384_20060218_014946p.mb57.gz 4.52MB Simrad multibeam processing format
0385_20060218_024946p.mb57.gz 4.47MB Simrad multibeam processing format
0386_20060218_034946p.mb57.gz 4.39MB Simrad multibeam processing format
0387_20060218_044946p.mb57.gz 4.22MB Simrad multibeam processing format
0388_20060218_054946p.mb57.gz 4.14MB Simrad multibeam processing format
0389_20060218_064946p.mb57.gz 4.05MB Simrad multibeam processing format
0390_20060218_074946p.mb57.gz 4.02MB Simrad multibeam processing format
0391_20060218_084947p.mb57.gz 3.98MB Simrad multibeam processing format
0392_20060218_094947p.mb57.gz 4.07MB Simrad multibeam processing format
0393_20060218_104947p.mb57.gz 3.98MB Simrad multibeam processing format
0394_20060218_114947p.mb57.gz 4.08MB Simrad multibeam processing format
0395_20060218_124947p.mb57.gz 4.19MB Simrad multibeam processing format
0396_20060218_134947p.mb57.gz 4.45MB Simrad multibeam processing format
0397_20060218_144948p.mb57.gz 5.28MB Simrad multibeam processing format
0398_20060218_154948p.mb57.gz 5.08MB Simrad multibeam processing format
0399_20060218_164948p.mb57.gz 1.22MB Simrad multibeam processing format
0400_20060218_170632p.mb57.gz 4.36MB Simrad multibeam processing format
0401_20060218_180632p.mb57.gz 4.23MB Simrad multibeam processing format
0402_20060218_190632p.mb57.gz 4.30MB Simrad multibeam processing format
0403_20060218_200632p.mb57.gz 1.11MB Simrad multibeam processing format
0404_20060218_202056p.mb57.gz 4.41MB Simrad multibeam processing format
0405_20060218_212056p.mb57.gz 4.52MB Simrad multibeam processing format
0406_20060218_222057p.mb57.gz 4.89MB Simrad multibeam processing format
0407_20060218_232057p.mb57.gz 5.64MB Simrad multibeam processing format
0408_20060219_002057p.mb57.gz 5.99MB Simrad multibeam processing format
0409_20060219_012057p.mb57.gz 6.63MB Simrad multibeam processing format
0410_20060219_022057p.mb57.gz 6.04MB Simrad multibeam processing format
0411_20060219_032057p.mb57.gz 5.56MB Simrad multibeam processing format
0412_20060219_042057p.mb57.gz 5.62MB Simrad multibeam processing format
0413_20060219_052058p.mb57.gz 5.39MB Simrad multibeam processing format
0414_20060219_062056p.mb57.gz 5.11MB Simrad multibeam processing format
0415_20060219_072056p.mb57.gz 5.83MB Simrad multibeam processing format
0416_20060219_082056p.mb57.gz 6.56MB Simrad multibeam processing format
0417_20060219_092057p.mb57.gz 6.59MB Simrad multibeam processing format
0418_20060219_102058p.mb57.gz 6.86MB Simrad multibeam processing format
0419_20060219_112058p.mb57.gz 7.81MB Simrad multibeam processing format
0420_20060219_122059p.mb57.gz 7.24MB Simrad multibeam processing format
0421_20060219_132059p.mb57.gz 6.60MB Simrad multibeam processing format
0422_20060219_142059p.mb57.gz 7.04MB Simrad multibeam processing format
0423_20060219_152059p.mb57.gz 6.99MB Simrad multibeam processing format
0424_20060219_162059p.mb57.gz 4.18MB Simrad multibeam processing format
0425_20060219_165820p.mb57.gz 7.15MB Simrad multibeam processing format
0426_20060219_175820p.mb57.gz 6.73MB Simrad multibeam processing format
0427_20060219_185820p.mb57.gz 8.10MB Simrad multibeam processing format
0428_20060219_195820p.mb57.gz 9.08MB Simrad multibeam processing format
0429_20060219_205820p.mb57.gz 8.95MB Simrad multibeam processing format
0430_20060219_215820p.mb57.gz 8.20MB Simrad multibeam processing format
0431_20060219_225820p.mb57.gz 9.12MB Simrad multibeam processing format
0432_20060219_235821p.mb57.gz 9.44MB Simrad multibeam processing format
0433_20060220_005821p.mb57.gz 7.95MB Simrad multibeam processing format
0434_20060220_014116p.mb57.gz 9.72MB Simrad multibeam processing format
0435_20060220_024116p.mb57.gz 10.91MB Simrad multibeam processing format
0436_20060220_034117p.mb57.gz 12.02MB Simrad multibeam processing format
0437_20060220_044117p.mb57.gz 12.18MB Simrad multibeam processing format
0438_20060220_054117p.mb57.gz 12.12MB Simrad multibeam processing format
0439_20060220_064117p.mb57.gz 14.64MB Simrad multibeam processing format
0440_20060220_074117p.mb57.gz 14.00MB Simrad multibeam processing format
0441_20060220_084117p.mb57.gz 17.88MB Simrad multibeam processing format
0442_20060220_094117p.mb57.gz 20.10MB Simrad multibeam processing format
0443_20060220_104118p.mb57.gz 16.30MB Simrad multibeam processing format
0444_20060220_114118p.mb57.gz 12.56MB Simrad multibeam processing format
0445_20060220_124118p.mb57.gz 4.54MB Simrad multibeam processing format
0446_20060220_134118p.mb57.gz 4.22MB Simrad multibeam processing format
0447_20060220_144118p.mb57.gz 4.82MB Simrad multibeam processing format
0448_20060220_154003p.mb57.gz 6.16MB Simrad multibeam processing format
0449_20060220_164003p.mb57.gz 8.76MB Simrad multibeam processing format
0450_20060220_174003p.mb57.gz 6.14MB Simrad multibeam processing format
0451_20060220_184003p.mb57.gz 4.72MB Simrad multibeam processing format
0452_20060220_194004p.mb57.gz 4.09MB Simrad multibeam processing format
0453_20060220_204004p.mb57.gz 4.81MB Simrad multibeam processing format
0454_20060220_214004p.mb57.gz 4.56MB Simrad multibeam processing format
0455_20060220_224004p.mb57.gz 4.66MB Simrad multibeam processing format
0456_20060220_234004p.mb57.gz 1.73MB Simrad multibeam processing format
0457_20060221_000411p.mb57.gz 4.42MB Simrad multibeam processing format
0458_20060221_010412p.mb57.gz 4.38MB Simrad multibeam processing format
0459_20060221_020412p.mb57.gz 4.08MB Simrad multibeam processing format
0460_20060221_030412p.mb57.gz 4.98MB Simrad multibeam processing format
0461_20060221_040412p.mb57.gz 6.08MB Simrad multibeam processing format
0462_20060221_050412p.mb57.gz 6.00MB Simrad multibeam processing format
0463_20060221_060412p.mb57.gz 6.51MB Simrad multibeam processing format
0464_20060221_070412p.mb57.gz 8.75MB Simrad multibeam processing format
0465_20060221_080412p.mb57.gz 9.14MB Simrad multibeam processing format
0466_20060221_090413p.mb57.gz 5.69MB Simrad multibeam processing format
0467_20060221_100413p.mb57.gz 4.73MB Simrad multibeam processing format
0468_20060221_110413p.mb57.gz 4.14MB Simrad multibeam processing format
0469_20060221_120413p.mb57.gz 5.72MB Simrad multibeam processing format
0470_20060221_130413p.mb57.gz 9.22MB Simrad multibeam processing format

Metadata Files: 3

Files File Size Description
NBP0602_Multibeam.xml NGDC created ISO metadata
NBP0602.xml 24.7KB XML metadata file
NBP0602.xml 24.7KB XML metadata file